Location: Cudham
(51.3000°N, 0.0667°E)
Time: 15:16:57
(UTC+00:00)

Meteor 2-2 Rocket - Pass Details

Date: 19 May 2025
Orbit: 852 x 927 km, 81.3° (Epoch: 17 June)

Event Time Altitude Azimuth Distance (km) Brightness Sun altitude
Exits shadow 20:57:31 - 180° (S) 3,404 6.9 -8.7°
Reaches altitude 10° 20:59:41 10° 177° (S) 2,581 6.3 -8.9°
Maximum altitude 21:05:31 65° 97° (E) 1,006 4.4 -9.5°
Drops below altitude 10° 21:11:28 10° 17° (NNE) 2,636 7.3 -10.1°
Sets 21:13:59 0° 15° (NNE) 3,587 8.0 -10.4°
